Location: Latina
(41.4670°N, 12.8670°E)
Time: 22:28:33
(UTC+02:00)

ISS - Pass Details

Date: 15 May 2021
Orbit: 417 x 422 km, 51.6° (Epoch: 22 June)

Event Time Altitude Azimuth Distance (km) Brightness Sun altitude
Rises 02:05:04 0° 306° (NW) 2,370 0.3 -28.1°
Reaches altitude 10° 02:07:45 10° 329° (NNW) 1,506 -0.5 -27.9°
Maximum altitude 02:09:58 16° 9° (N) 1,187 -0.7 -27.8°
Drops below altitude 10° 02:12:10 10° 50° (NE) 1,507 -0.3 -27.7°
Sets 02:14:52 0° 73° (ENE) 2,371 0.5 -27.5°
